EHI
41 41 40 35 24 13 8 6 5 3 3 3 3 4 6 8 10 12 11 8 4 2 1 0 0 0 1 3 4 4 4 5 6 4 2 1 2 5 4 2 0 1 1
38 37 36 32 23 14 9 6 5 3 2 1 2 3 6 7 9 10 10 6 4 2 1 0 0 1 2 3 4 4 2 3 5 3 1 0 1 3 4 1 0 0 1
32 30 29 27 21 14 9 7 5 3 1 0 1 2 4 6 7 8 8 5 3 2 1 0 1 2 4 4 3 2 1 2 3 2 0 0 0 1 2 1 0 0 0
27 27 27 26 19 12 9 7 6 4 2 1 1 1 3 6 8 7 6 3 2 2 1 1 1 3 4 4 3 1 1 1 1 0 0 1 0 0 0 0 0 0 0
29 30 30 27 20 13 9 7 6 5 4 2 1 2 4 7 10 9 6 2 2 2 3 2 3 3 4 4 2 1 0 1 1 0 1 2 2 1 0 0 0 0 0
34 33 31 29 24 17 12 8 7 7 6 3 2 3 6 9 12 11 7 3 3 3 3 3 4 4 4 3 2 1 1 1 1 1 1 3 3 2 2 1 0 0 0
36 33 30 29 27 21 16 13 10 9 7 5 4 4 7 10 12 11 7 4 3 3 3 4 5 5 5 4 3 2 2 3 2 1 2 3 4 4 4 2 0 0 0
34 31 27 26 25 22 19 17 14 10 8 7 7 8 9 10 11 9 6 4 4 3 3 3 4 5 4 4 4 3 4 4 2 1 2 4 6 7 4 2 0 0 0
31 30 26 22 20 19 19 18 15 12 9 8 10 12 13 12 9 7 5 3 3 2 2 2 2 3 3 4 4 3 3 3 2 0 1 4 7 8 5 3 1 0 0
31 30 27 22 18 17 16 16 16 15 12 10 11 13 13 11 8 5 2 1 1 1 1 1 2 3 3 4 4 4 3 2 1 0 1 4 8 8 7 5 3 1 1
30 29 27 23 19 15 13 15 17 17 15 12 10 10 10 8 5 2 1 1 1 1 0 0 2 4 4 5 6 7 6 3 1 0 2 6 9 9 8 7 5 2 2
29 28 26 24 20 15 13 15 17 17 15 12 10 8 7 5 3 1 1 3 3 2 1 1 2 3 4 5 7 8 7 4 1 1 5 10 11 10 9 8 6 3 1
28 28 27 26 23 18 16 18 18 17 15 13 12 10 7 5 3 2 3 4 3 3 2 2 3 4 4 4 5 5 4 3 1 1 6 11 13 12 11 9 6 3 2
26 27 29 30 29 26 23 21 20 20 18 17 16 13 10 8 5 4 4 5 4 4 3 3 4 5 4 4 3 2 2 1 1 2 6 12 14 13 12 11 8 5 4
27 30 33 34 35 33 28 24 23 23 22 21 17 14 12 10 8 7 6 6 5 4 5 5 4 5 5 5 3 2 2 3 3 4 7 12 14 13 12 12 10 7 6
34 37 38 38 38 35 28 24 24 25 24 21 18 15 13 12 11 10 8 7 6 5 5 6 5 5 6 6 5 3 3 4 5 6 7 11 13 13 12 12 10 9 8
43 44 42 39 37 34 26 23 23 22 22 20 18 16 15 13 12 12 10 8 7 6 6 6 6 5 6 6 5 4 4 4 5 5 6 9 11 12 13 12 10 9 9
45 46 43 38 37 34 27 22 23 23 22 21 19 18 18 15 13 14 12 10 8 7 6 6 6 6 5 4 4 4 3 4 4 4 5 7 9 10 12 12 11 9 9
45 46 44 41 39 36 29 25 26 26 23 20 19 19 20 17 14 14 14 11 8 7 7 7 6 7 6 4 3 2 3 4 4 4 4 5 7 9 10 12 12 9 7
48 48 47 46 43 37 32 29 28 27 23 17 16 18 19 18 15 14 14 13 10 9 10 10 9 9 9 6 4 3 4 5 6 6 5 5 6 7 9 11 11 9 7
53 52 50 49 44 40 38 34 30 27 22 18 17 19 21 20 17 15 15 14 12 12 13 12 12 12 11 10 8 5 5 7 7 8 8 8 7 6 8 11 11 10 8
56 54 52 49 45 42 41 38 33 29 26 23 23 25 24 22 19 16 16 16 14 12 13 13 13 12 11 12 11 8 7 7 7 8 9 9 8 8 8 9 11 12 11
58 55 52 50 47 44 42 38 34 31 28 27 29 29 25 22 19 18 19 19 16 13 12 13 13 12 11 11 10 9 8 7 8 8 8 8 8 9 8 7 9 12 13
62 58 55 53 51 48 44 38 34 30 28 29 31 30 26 21 19 18 19 21 18 13 11 11 11 12 11 10 9 9 8 7 7 8 7 8 9 8 7 5 7 11 13
62 59 56 57 56 54 48 41 36 32 30 31 33 33 28 23 20 18 19 20 18 13 10 9 9 11 12 10 9 8 8 7 7 7 7 8 9 9 8 7 8 9 10
60 57 57 60 60 56 50 44 38 35 33 34 36 34 28 23 20 19 18 20 18 13 10 9 8 11 12 10 8 7 8 8 7 6 7 8 9 9 9 10 9 8 8
Wind_Speed
14 14 14 13 11 11 10 9 9 9 9 9 8 8 8 8 8 8 9 10 10 10 9 9 9 9 9 9 9 9 9 8 8 9 9 10 9 9 9 9 9 8 10
17 15 15 13 12 11 10 9 9 9 9 8 8 8 7 7 8 8 9 9 9 9 9 8 8 8 9 9 8 8 7 6 6 6 8 8 9 8 8 8 8 7 10
17 15 14 13 12 11 10 10 9 9 9 8 8 8 7 8 8 8 9 9 8 8 8 8 8 8 8 8 7 6 5 4 4 4 5 4 6 8 7 8 10 10 9
17 15 13 14 12 11 10 10 9 9 8 8 8 7 7 8 9 9 9 9 8 8 8 8 8 8 7 6 6 5 4 2 2 2 2 4 5 8 8 9 9 10 10
16 15 14 14 12 11 10 10 9 9 8 8 8 7 8 8 8 8 8 8 8 8 7 7 7 7 6 5 4 3 2 1 2 1 1 4 5 8 9 9 9 9 9
17 16 15 14 12 11 10 10 9 9 8 8 8 7 8 8 8 8 8 8 8 7 7 6 6 6 5 4 2 1 1 2 2 1 2 4 5 7 9 9 9 9 8
16 15 15 14 13 11 10 10 9 8 8 8 8 8 8 8 8 8 8 8 7 7 6 6 5 5 4 3 2 1 2 2 2 1 2 5 6 8 8 8 8 8 8
15 15 14 14 13 12 11 10 9 8 8 8 8 7 7 7 7 7 7 7 7 6 6 5 5 5 4 3 2 3 3 3 1 1 3 5 7 8 8 8 9 8 7
14 15 13 12 12 12 11 10 9 8 8 8 7 7 7 7 7 7 7 7 6 5 5 4 4 4 3 3 4 4 4 4 2 1 3 4 8 8 8 8 8 8 7
11 13 12 12 11 10 10 10 9 9 8 8 7 7 7 7 7 7 6 6 6 5 4 3 2 3 3 4 5 6 6 5 2 1 2 5 8 9 8 7 7 8 7
10 11 11 11 10 10 10 10 10 9 8 8 7 7 6 4 5 5 6 7 6 5 4 3 3 3 4 5 7 7 6 3 2 2 3 7 8 9 8 7 7 7 7
9 10 8 10 9 9 8 8 6 6 6 5 4 5 4 3 3 6 7 8 7 6 6 5 5 6 5 3 6 7 3 3 2 3 4 10 9 9 8 7 7 7 7
9 8 8 7 7 7 5 6 4 4 5 5 4 4 3 2 3 4 3 4 4 5 4 4 5 4 3 2 2 3 2 2 1 3 6 11 10 9 8 8 7 7 7
9 9 8 7 6 6 5 4 4 4 3 4 3 2 2 2 2 2 2 2 2 2 3 2 2 2 1 2 2 1 1 1 2 3 5 12 10 9 8 8 7 7 7
9 9 8 7 5 4 4 2 3 3 4 4 3 2 2 2 2 2 1 1 2 2 2 1 0 1 1 1 1 1 1 1 3 3 5 11 11 9 8 8 7 7 7
9 9 8 8 6 5 4 2 3 3 3 3 3 3 2 1 2 2 1 1 1 1 1 1 1 0 0 0 0 0 0 0 2 3 4 7 11 10 9 8 7 7 7
8 8 9 8 7 5 5 3 3 3 3 2 3 3 3 2 2 1 1 1 0 1 1 1 0 1 1 1 1 1 1 1 1 2 3 4 6 9 9 8 8 7 7
8 8 8 8 8 6 4 3 3 3 3 2 3 3 3 2 2 1 1 1 0 0 0 1 0 0 1 0 0 1 1 1 1 2 2 3 4 4 7 10 8 8 8
8 8 7 6 7 7 5 3 2 2 2 2 3 2 3 3 2 1 1 1 1 0 1 0 1 1 1 1 1 1 2 2 2 2 2 3 3 3 4 8 10 9 9
9 8 7 6 6 5 5 3 2 2 2 2 2 2 3 3 2 2 1 1 1 0 0 1 0 0 1 1 2 1 1 2 2 2 2 2 3 4 4 5 6 7 10
9 8 6 6 6 4 4 4 3 3 2 2 3 3 3 2 2 1 1 1 1 1 1 0 1 1 2 1 1 1 1 2 3 3 2 2 3 3 3 4 4 4 5
9 8 7 5 6 5 4 3 3 3 2 3 2 3 3 3 2 2 1 1 1 1 1 1 1 1 2 1 1 1 1 1 1 3 3 3 3 3 3 4 4 4 4
9 9 7 6 5 4 4 3 3 2 2 2 3 3 3 3 2 1 2 1 1 1 1 1 1 2 2 1 0 0 1 1 1 1 2 2 2 2 2 2 3 3 4
9 9 7 6 5 4 4 4 5 4 3 3 3 3 3 3 3 2 2 1 1 1 1 2 1 2 2 2 1 1 1 1 0 0 0 1 1 2 2 2 2 3 3
9 9 8 7 5 5 5 5 4 4 3 3 3 4 4 3 3 2 2 1 1 1 2 2 1 2 2 2 2 1 2 2 2 1 1 1 1 1 2 2 1 2 2
9 9 8 7 6 5 5 4 4 4 4 4 4 4 3 3 2 2 2 2 1 1 1 2 2 2 2 2 2 2 2 1 1 2 2 2 2 1 2 1 2 2 3
Wind_Direction
112 119 120 115 110 107 105 103 103 101 99 98 94 91 93 93 92 94 96 101 104 104 107 109 109 110 105 101 98 96 95 95 98 102 105 104 106 111 116 119 122 111 111
117 121 122 117 114 111 109 110 108 106 103 100 98 95 96 96 94 97 101 104 107 108 112 114 113 112 109 108 104 101 101 102 104 114 118 113 111 112 114 119 122 119 120
118 123 123 118 116 115 114 112 111 107 103 101 101 100 98 96 97 101 106 108 108 110 114 115 116 116 112 112 113 110 110 114 127 134 135 124 116 118 118 118 125 127 129
120 124 122 122 119 118 117 116 114 110 107 102 101 102 104 104 101 102 108 109 106 105 109 112 114 115 115 117 121 120 123 138 166 164 156 127 121 124 126 128 132 134 135
121 120 122 126 123 122 120 117 116 115 113 110 107 106 108 110 106 105 110 112 109 106 107 112 117 122 121 122 127 136 154 200 225 213 108 115 115 128 130 129 134 137 138
120 120 126 128 125 124 124 122 119 117 118 116 114 111 111 113 111 109 109 111 112 110 109 111 117 126 126 126 132 159 228 262 265 208 141 126 119 130 129 134 142 144 145
119 122 128 131 129 128 127 126 125 121 120 120 118 114 115 116 116 114 113 112 112 111 110 111 114 126 131 139 160 225 268 270 234 175 136 112 118 131 130 137 141 143 147
121 124 130 135 135 135 133 131 130 127 125 126 126 120 121 123 123 122 122 117 114 112 109 106 110 123 134 157 200 247 265 269 236 165 116 110 126 132 134 139 143 146 147
126 129 137 141 140 140 140 139 140 138 134 133 132 131 130 130 130 130 127 119 117 114 111 111 118 131 149 185 218 238 250 261 266 184 126 117 131 133 135 140 147 151 150
128 133 143 146 147 150 147 147 148 146 142 143 145 147 145 144 143 141 134 126 124 122 121 126 141 162 184 213 226 237 250 261 232 151 112 121 128 128 128 137 147 152 153
135 136 145 147 151 154 149 147 152 153 155 158 163 164 165 163 152 151 136 138 139 145 155 174 199 205 211 224 232 240 247 233 182 133 111 123 130 130 125 131 141 149 153
141 141 144 146 150 152 146 143 156 157 156 169 158 167 181 168 141 133 143 153 156 161 174 199 217 216 218 222 224 231 233 216 174 139 134 136 132 130 127 131 139 152 158
147 142 142 138 140 142 139 149 157 152 152 163 160 174 162 148 141 138 150 159 174 177 189 197 217 222 210 206 217 205 210 185 153 132 138 137 132 132 133 134 136 145 153
150 148 139 132 129 134 135 143 151 148 152 149 153 174 150 154 141 135 152 158 179 177 186 190 196 204 210 222 221 222 186 162 125 123 143 143 140 142 145 146 149 153 157
153 150 140 132 126 115 117 146 143 134 149 143 148 174 158 152 145 129 146 166 180 172 172 179 169 180 211 234 220 204 179 152 142 136 140 152 151 154 157 156 157 160 165
151 147 138 136 133 128 129 141 123 137 128 142 152 156 164 153 122 135 163 190 177 154 132 149 160 199 69 26 31 221 275 191 139 143 148 156 162 162 163 166 166 167 171
145 139 139 144 144 146 147 161 143 145 142 147 140 145 156 160 143 143 155 203 170 148 154 134 174 177 186 178 176 195 207 232 142 145 155 156 164 170 171 175 173 171 175
143 138 145 154 150 151 150 165 156 148 143 147 144 146 156 160 159 159 157 154 226 146 143 152 352 359 30 21 239 225 187 176 191 182 179 161 159 166 180 185 181 179 182
139 136 143 143 148 155 157 161 151 128 133 136 137 145 155 166 162 180 157 133 242 102 74 353 72 33 356 328 255 214 199 184 188 201 189 174 164 165 171 181 187 192 193
138 139 142 138 141 151 154 153 147 148 152 152 141 147 148 168 177 183 161 165 226 131 84 52 30 279 293 280 280 269 211 198 187 183 198 191 181 180 177 170 181 198 201
140 143 145 150 147 153 158 165 166 172 175 160 153 148 153 163 175 168 176 181 193 188 165 194 267 251 247 260 270 273 248 210 191 181 184 186 188 184 179 175 177 181 189
150 149 148 149 156 168 162 169 166 161 170 151 147 149 154 160 182 188 188 200 194 205 195 227 252 283 270 236 255 292 262 232 227 207 188 193 192 187 187 186 179 180 177
156 156 159 158 164 169 158 163 151 145 154 154 159 162 165 169 172 187 189 225 210 194 194 218 243 254 280 279 202 233 286 266 263 203 195 188 180 181 189 198 185 170 177
159 158 157 157 161 165 164 172 173 172 174 169 159 162 164 163 171 182 180 201 217 202 202 230 232 258 260 271 269 221 236 258 251 282 277 203 194 182 191 213 190 174 179
160 160 158 154 158 168 177 180 185 175 174 162 158 159 163 166 176 178 175 184 197 196 211 226 245 263 258 262 269 258 255 255 241 220 240 227 212 205 200 204 191 201 186
162 159 155 156 161 166 179 181 187 179 173 172 169 164 174 168 177 180 183 182 193 204 211 220 220 233 259 277 286 278 266 257 248 237 236 225 213 226 213 207 209 211 203